St. James, MN

10:16 PM CDT on April 28, 2017 (GMT -0500)
Saint James Municipal

Weather History for KJYG - October, 2013

Change the Weather History Date:

Friday, October 25, 2013

  Actual Average Record
Temperature  
Mean Temperature 43 °F -  
Max Temperature 62 °F 58 °F 82 °F (1989)
Min Temperature 24 °F 34 °F 23 °F (1962)
Degree Days  
Heating Degree Days 22    
Moisture  
Dew Point 31 °F    
Average Humidity 65    
Maximum Humidity 93    
Minimum Humidity 37    
Precipitation  
Precipitation 0.00 in - - ()
Sea Level Pressure  
Sea Level Pressure 30.12 in    
Wind  
Wind Speed 10 mph (SSW)    
Max Wind Speed 26 mph    
Max Gust Speed 36 mph    
Visibility 10 miles    
Events      
Averages and records for this station are not official NWS values.
T = Trace of Precipitation, MM = Missing Value Source: NWS Daily Summary

Daily Weather History Graph

Daily Weather History Graph

Search for Another Location

Airport or City:

Trip Planner

Search our weather history database for the weather conditions in past years. The results will help you decide how hot, cold, wet, or windy it might be!

Date:

Astronomy

Oct. 25, 2013 Rise Set
Actual Time 7:45 AM CDT 6:17 PM CDT
Civil Twilight 7:16 AM CDT 6:47 PM CDT
Nautical Twilight 6:42 AM CDT 7:21 PM CDT
Astronomical Twilight 6:09 AM CDT 7:54 PM CDT
Moon 11:35 PM CDT (10/25) 1:30 PM CDT (10/25)
Length of Visible Light 11h 31m
Length of Day
10h 32m
Waning Gibbous, 62% of the Moon is Illuminated
Oct 25
Waning Gibbous
Oct 26
Last Quarter
Nov 3
New
Nov 9
First Quarter
Nov 17
Full

Hourly Weather History & Observations

Time (CDT) Temp. Windchill Dew Point Humidity Pressure Visibility Wind Dir Wind Speed Gust Speed Precip Events Conditions
12:12 AM 28.4 °F 23.3 °F 24.8 °F 86% 30.35 in 10.0 mi WSW 4.6 mph - N/A   Clear
12:35 AM 28.4 °F 22.2 °F 24.8 °F 86% 30.36 in 10.0 mi SW 5.8 mph - N/A   Clear
12:55 AM 28.4 °F 22.2 °F 24.8 °F 86% 30.36 in 10.0 mi SW 5.8 mph - N/A   Scattered Clouds
1:15 AM 26.6 °F - 24.8 °F 93% 30.35 in 10.0 mi Calm Calm - N/A   Clear
1:35 AM 26.6 °F 21.2 °F 23.0 °F 86% 30.35 in 10.0 mi SW 4.6 mph - N/A   Clear
1:55 AM 26.6 °F 19.1 °F 24.8 °F 93% 30.36 in 10.0 mi SW 6.9 mph - N/A   Clear
2:14 AM 26.6 °F 19.1 °F 24.8 °F 93% 30.36 in 10.0 mi SW 6.9 mph - N/A   Clear
2:35 AM 26.6 °F 19.1 °F 24.8 °F 93% 30.36 in 10.0 mi SW 6.9 mph - N/A   Clear
2:55 AM 26.6 °F 21.2 °F 23.0 °F 86% 30.35 in 10.0 mi SSW 4.6 mph - N/A   Clear
3:15 AM 26.6 °F 21.2 °F 23.0 °F 86% 30.35 in 10.0 mi SSW 4.6 mph - N/A   Clear
3:34 AM 26.6 °F - 23.0 °F 86% 30.35 in 10.0 mi Calm Calm - N/A   Clear
3:55 AM 24.8 °F - 23.0 °F 93% 30.34 in 10.0 mi Calm Calm - N/A   Clear
4:15 AM 26.6 °F 22.6 °F 23.0 °F 86% 30.34 in 10.0 mi SSW 3.5 mph - N/A   Clear
4:35 AM 24.8 °F 20.5 °F 23.0 °F 93% 30.34 in 10.0 mi South 3.5 mph - N/A   Clear
4:55 AM 24.8 °F 17.9 °F 23.0 °F 93% 30.33 in 10.0 mi South 5.8 mph - N/A   Clear
5:14 AM 24.8 °F 19.1 °F 23.0 °F 93% 30.33 in 10.0 mi South 4.6 mph - N/A   Clear
5:35 AM 24.8 °F 20.5 °F 23.0 °F 93% 30.32 in 10.0 mi South 3.5 mph - N/A   Clear
5:55 AM 26.6 °F 22.6 °F 23.0 °F 86% 30.32 in 10.0 mi South 3.5 mph - N/A   Clear
6:15 AM 26.6 °F 20.0 °F 23.0 °F 86% 30.31 in 10.0 mi SSE 5.8 mph - N/A   Clear
6:35 AM 26.6 °F 20.0 °F 24.8 °F 93% 30.31 in 10.0 mi South 5.8 mph - N/A   Clear
6:55 AM 26.6 °F 20.0 °F 24.8 °F 93% 30.30 in 10.0 mi South 5.8 mph - N/A   Clear
7:15 AM 26.6 °F 18.2 °F 24.8 °F 93% 30.29 in 10.0 mi SSE 8.1 mph - N/A   Clear
7:35 AM 26.6 °F 20.0 °F 24.8 °F 93% 30.29 in 10.0 mi South 5.8 mph - N/A   Clear
7:55 AM 26.6 °F 20.0 °F 24.8 °F 93% 30.28 in 10.0 mi South 5.8 mph - N/A   Clear
8:15 AM 28.4 °F 20.4 °F 24.8 °F 86% 30.27 in 10.0 mi South 8.1 mph - N/A   Clear
8:35 AM 30.2 °F 21.9 °F 26.6 °F 86% 30.27 in 10.0 mi South 9.2 mph - N/A   Clear
8:54 AM 32.0 °F 23.6 °F 26.6 °F 80% 30.27 in 10.0 mi South 10.4 mph - N/A   Clear
9:15 AM 33.8 °F 25.3 °F 26.6 °F 75% 30.25 in 10.0 mi South 11.5 mph - N/A   Clear
9:35 AM 35.6 °F 26.6 °F 28.4 °F 75% 30.24 in 10.0 mi South 13.8 mph 17.3 mph N/A   Clear
9:55 AM 37.4 °F 29.3 °F 30.2 °F 75% 30.23 in 10.0 mi South 12.7 mph - N/A   Mostly Cloudy
10:15 AM 37.4 °F 29.3 °F 30.2 °F 75% 30.22 in 10.0 mi South 12.7 mph - N/A   Mostly Cloudy
10:34 AM 39.2 °F 31.2 °F 30.2 °F 70% 30.21 in 10.0 mi South 13.8 mph - N/A   Mostly Cloudy
10:55 AM 42.8 °F 35.1 °F 30.2 °F 61% 30.19 in 10.0 mi South 16.1 mph - N/A   Scattered Clouds
11:15 AM 46.4 °F 40.1 °F 30.2 °F 53% 30.17 in 10.0 mi South 15.0 mph 23.0 mph N/A   Clear
11:34 AM 48.2 °F - 30.2 °F 50% 30.15 in 10.0 mi South 17.3 mph 21.9 mph N/A   Clear
11:55 AM 50.0 °F - 30.2 °F 47% 30.13 in 10.0 mi SSW 23.0 mph 27.6 mph N/A   Clear
12:15 PM 51.8 °F - 32.0 °F 47% 30.12 in 10.0 mi SSW 17.3 mph 27.6 mph N/A   Clear
12:35 PM 51.8 °F - 33.8 °F 50% 30.10 in 10.0 mi SSW 19.6 mph 28.8 mph N/A   Clear
12:55 PM 53.6 °F - 33.8 °F 47% 30.08 in 10.0 mi SSW 18.4 mph 24.2 mph N/A   Clear
1:15 PM 55.4 °F - 33.8 °F 44% 30.06 in 10.0 mi SSW 19.6 mph 27.6 mph N/A   Clear
1:35 PM 55.4 °F - 33.8 °F 44% 30.05 in 10.0 mi SSW 23.0 mph 31.1 mph N/A   Clear
1:55 PM 57.2 °F - 33.8 °F 41% 30.03 in 10.0 mi SSW 21.9 mph 31.1 mph N/A   Clear
2:15 PM 57.2 °F - 33.8 °F 41% 30.02 in 10.0 mi SSW 18.4 mph 27.6 mph N/A   Clear
2:34 PM 57.2 °F - 33.8 °F 41% 30.01 in 10.0 mi SSW 21.9 mph 28.8 mph N/A   Clear
2:55 PM 59.0 °F - 35.6 °F 42% 29.99 in 10.0 mi SW 24.2 mph 32.2 mph N/A   Clear
3:15 PM 60.8 °F - 35.6 °F 39% 29.98 in 10.0 mi SSW 23.0 mph 28.8 mph N/A   Clear
3:35 PM 60.8 °F - 35.6 °F 39% 29.97 in 10.0 mi SSW 23.0 mph 35.7 mph N/A   Clear
3:55 PM 60.8 °F - 35.6 °F 39% 29.96 in 10.0 mi SSW 25.3 mph 34.5 mph N/A   Clear
4:15 PM 60.8 °F - 35.6 °F 39% 29.94 in 10.0 mi SSW 20.7 mph 32.2 mph N/A   Clear
4:35 PM 62.6 °F - 35.6 °F 37% 29.93 in 10.0 mi SSW 26.5 mph 34.5 mph N/A   Clear
4:55 PM 62.6 °F - 35.6 °F 37% 29.92 in 10.0 mi SSW 20.7 mph 28.8 mph N/A   Clear
5:15 PM 60.8 °F - 35.6 °F 39% 29.92 in 10.0 mi SSW 20.7 mph 27.6 mph N/A   Clear
5:35 PM 60.8 °F - 35.6 °F 39% 29.91 in 10.0 mi SSW 21.9 mph 28.8 mph N/A   Clear
5:55 PM 60.8 °F - 37.4 °F 42% 29.91 in 10.0 mi SSW 17.3 mph 21.9 mph N/A   Clear
6:15 PM 59.0 °F - 37.4 °F 45% 29.90 in 10.0 mi SSW 17.3 mph 24.2 mph N/A   Clear
6:35 PM 57.2 °F - 37.4 °F 48% 29.89 in 10.0 mi SSW 18.4 mph 24.2 mph N/A   Clear
6:55 PM 55.4 °F - 37.4 °F 51% 29.89 in 10.0 mi SSW 16.1 mph 21.9 mph N/A   Clear
7:15 PM 55.4 °F - 35.6 °F 47% 29.89 in 10.0 mi SSW 13.8 mph 19.6 mph N/A   Clear
7:35 PM 55.4 °F - 35.6 °F 47% 29.89 in 10.0 mi SSW 12.7 mph 19.6 mph N/A   Clear
7:54 PM 55.4 °F - 35.6 °F 47% 29.89 in 10.0 mi SSW 15.0 mph 20.7 mph N/A   Clear
8:15 PM 55.4 °F - 35.6 °F 47% 29.89 in 10.0 mi SSW 17.3 mph 24.2 mph N/A   Clear
8:35 PM 55.4 °F - 35.6 °F 47% 29.89 in 10.0 mi SSW 21.9 mph 27.6 mph N/A   Clear
8:55 PM 53.6 °F - 35.6 °F 51% 29.90 in 10.0 mi SW 16.1 mph 26.5 mph N/A   Clear
9:15 PM 53.6 °F - 35.6 °F 51% 29.89 in 10.0 mi SW 17.3 mph - N/A   Clear
9:35 PM 53.6 °F - 35.6 °F 51% 29.88 in 10.0 mi SW 21.9 mph 33.4 mph N/A   Scattered Clouds
9:54 PM 53.6 °F - 35.6 °F 51% 29.87 in 10.0 mi SSW 20.7 mph 28.8 mph N/A   Mostly Cloudy
10:15 PM 53.6 °F - 35.6 °F 51% 29.88 in 10.0 mi SW 21.9 mph 27.6 mph N/A   Scattered Clouds
10:35 PM 53.6 °F - 35.6 °F 51% 29.90 in 10.0 mi WSW 17.3 mph - N/A   Mostly Cloudy
10:55 PM 51.8 °F - 37.4 °F 58% 29.89 in 10.0 mi WSW 16.1 mph 24.2 mph N/A   Scattered Clouds
11:15 PM 51.8 °F - 37.4 °F 58% 29.90 in 10.0 mi WSW 15.0 mph - N/A   Clear
11:35 PM 51.8 °F - 37.4 °F 58% 29.89 in 10.0 mi SW 15.0 mph - N/A   Clear
11:55 PM 50.0 °F - 37.4 °F 62% 29.88 in 10.0 mi SW 13.8 mph - N/A   Clear